• In Österreich
  • Länderverzeichnis
  • Für 7 Tage
  • Wassertemperatur
  • Satellitenkarten
  • Wetterkarte
  • News
  • Widgets
  • user-avatar
    Anmelden

    Stündliche Wetter Chistoe

    Heute, 16 Juli, Montag

    Zeit Temperatur Niederschläge Wind Luftdruck Luftfeuchtigkeit
    00:00 +19°C° 0 mm 1 m/S 739 mmHg 95%
    01:00 +19°C° 0 mm 1 m/S 739 mmHg 96%
    02:00 +18°C° 0 mm 1 m/S 739 mmHg 96%
    03:00 +17°C° 0 mm 2 m/S 739 mmHg 96%
    04:00 +18°C° 0 mm 2 m/S 739 mmHg 96%
    05:00 +18°C° 0 mm 2 m/S 739 mmHg 96%
    06:00 +19°C° 0 mm 2 m/S 739 mmHg 90%
    07:00 +21°C° 0 mm 2 m/S 739 mmHg 85%
    08:00 +24°C° 0 mm 3 m/S 739 mmHg 79%
    09:00 +25°C° 0,1 mm 3 m/S 739 mmHg 72%
    10:00 +26°C° 0,1 mm 3 m/S 739 mmHg 64%
    11:00 +28°C° 0,1 mm 4 m/S 739 mmHg 57%
    12:00 +28°C° 0,3 mm 4 m/S 739 mmHg 60%
    13:00 +28°C° 0,3 mm 4 m/S 738 mmHg 63%
    14:00 +28°C° 0,3 mm 4 m/S 738 mmHg 67%
    15:00 +27°C° 0,4 mm 3 m/S 738 mmHg 70%
    16:00 +27°C° 0,4 mm 3 m/S 738 mmHg 73%
    17:00 +26°C° 0,4 mm 2 m/S 738 mmHg 76%
    18:00 +25°C° 0,1 mm 2 m/S 738 mmHg 79%
    19:00 +24°C° 0,1 mm 2 m/S 738 mmHg 82%
    20:00 +23°C° 0,1 mm 2 m/S 738 mmHg 85%
    21:00 +21°C° 0 mm 2 m/S 738 mmHg 85%
    22:00 +20°C° 0 mm 2 m/S 738 mmHg 86%
    23:00 +19°C° 0 mm 2 m/S 738 mmHg 87%

    Morgen, 17 Juli, Dienstag

    Zeit Temperatur Niederschläge Wind Luftdruck Luftfeuchtigkeit
    00:00 +19°C° 0 mm 2 m/S 738 mmHg 87%
    01:00 +18°C° 0 mm 2 m/S 738 mmHg 88%
    02:00 +18°C° 0 mm 3 m/S 738 mmHg 88%
    03:00 +18°C° 0 mm 3 m/S 738 mmHg 88%
    04:00 +18°C° 0 mm 3 m/S 738 mmHg 87%
    05:00 +18°C° 0 mm 3 m/S 738 mmHg 87%
    06:00 +20°C° 0 mm 4 m/S 738 mmHg 80%
    07:00 +22°C° 0 mm 4 m/S 738 mmHg 73%
    08:00 +25°C° 0 mm 4 m/S 738 mmHg 66%
    09:00 +26°C° 0 mm 5 m/S 737 mmHg 61%
    10:00 +28°C° 0 mm 5 m/S 737 mmHg 56%
    11:00 +29°C° 0 mm 5 m/S 737 mmHg 51%
    12:00 +29°C° 0 mm 5 m/S 737 mmHg 50%
    13:00 +29°C° 0 mm 5 m/S 736 mmHg 49%
    14:00 +30°C° 0 mm 5 m/S 736 mmHg 48%
    15:00 +30°C° 0 mm 5 m/S 736 mmHg 50%
    16:00 +29°C° 0 mm 4 m/S 736 mmHg 52%
    17:00 +29°C° 0 mm 4 m/S 736 mmHg 53%
    18:00 +27°C° 0 mm 4 m/S 735 mmHg 60%
    19:00 +26°C° 0 mm 3 m/S 735 mmHg 66%
    20:00 +24°C° 0 mm 3 m/S 735 mmHg 73%
    21:00 +24°C° 0 mm 3 m/S 735 mmHg 75%
    22:00 +22°C° 0 mm 3 m/S 735 mmHg 77%
    23:00 +21°C° 0 mm 3 m/S 735 mmHg 79%

    übermorgen, 18 Juli, Mittwoch

    Zeit Temperatur Niederschläge Wind Luftdruck Luftfeuchtigkeit
    00:00 +21°C° 0 mm 3 m/S 735 mmHg 82%
    01:00 +20°C° 0 mm 3 m/S 735 mmHg 85%
    02:00 +20°C° 0 mm 3 m/S 735 mmHg 88%
    03:00 +20°C° 0,1 mm 3 m/S 735 mmHg 89%
    04:00 +20°C° 0,1 mm 3 m/S 735 mmHg 91%
    05:00 +20°C° 0,1 mm 3 m/S 735 mmHg 92%
    06:00 +21°C° 0 mm 3 m/S 736 mmHg 88%
    07:00 +22°C° 0 mm 3 m/S 736 mmHg 84%
    08:00 +24°C° 0 mm 3 m/S 736 mmHg 80%
    09:00 +25°C° 0,2 mm 4 m/S 736 mmHg 73%
    10:00 +27°C° 0,2 mm 4 m/S 736 mmHg 65%
    11:00 +28°C° 0,2 mm 4 m/S 736 mmHg 57%
    12:00 +29°C° 0 mm 4 m/S 736 mmHg 54%
    13:00 +30°C° 0 mm 5 m/S 735 mmHg 51%
    14:00 +30°C° 0 mm 5 m/S 735 mmHg 48%
    15:00 +30°C° 0,1 mm 4 m/S 735 mmHg 51%
    16:00 +29°C° 0,1 mm 4 m/S 735 mmHg 54%
    17:00 +29°C° 0,1 mm 4 m/S 735 mmHg 56%
    18:00 +27°C° 0,3 mm 3 m/S 735 mmHg 66%
    19:00 +24°C° 0,3 mm 3 m/S 735 mmHg 77%
    20:00 +21°C° 0,3 mm 2 m/S 735 mmHg 87%
    21:00 +20°C° 0 mm 2 m/S 735 mmHg 89%
    22:00 +20°C° 0 mm 2 m/S 736 mmHg 91%
    23:00 +19°C° 0 mm 2 m/S 736 mmHg 93%

    19 Juli, Donnerstag

    Zeit Temperatur Niederschläge Wind Luftdruck Luftfeuchtigkeit
    00:00 +18°C° 0 mm 2 m/S 736 mmHg 94%
    01:00 +18°C° 0 mm 2 m/S 736 mmHg 96%
    02:00 +18°C° 0 mm 2 m/S 735 mmHg 97%
    03:00 +18°C° 0 mm 2 m/S 735 mmHg 96%
    04:00 +18°C° 0 mm 3 m/S 736 mmHg 96%
    05:00 +18°C° 0 mm 3 m/S 736 mmHg 95%
    06:00 +19°C° 0 mm 3 m/S 736 mmHg 91%
    07:00 +19°C° 0 mm 3 m/S 736 mmHg 86%
    08:00 +20°C° 0 mm 3 m/S 736 mmHg 82%
    09:00 +20°C° 0,1 mm 3 m/S 736 mmHg 81%
    10:00 +21°C° 0,1 mm 3 m/S 736 mmHg 80%
    11:00 +21°C° 0,1 mm 3 m/S 736 mmHg 79%
    12:00 +23°C° 0 mm 2 m/S 736 mmHg 76%
    13:00 +24°C° 0 mm 2 m/S 736 mmHg 74%
    14:00 +24°C° 0 mm 2 m/S 736 mmHg 71%
    15:00 +25°C° 0,1 mm 2 m/S 736 mmHg 72%
    16:00 +25°C° 0,1 mm 2 m/S 736 mmHg 73%
    17:00 +25°C° 0,1 mm 2 m/S 736 mmHg 74%
    18:00 +24°C° 0,2 mm 2 m/S 736 mmHg 80%
    19:00 +23°C° 0,2 mm 2 m/S 736 mmHg 86%
    20:00 +22°C° 0,2 mm 1 m/S 736 mmHg 93%
    21:00 +21°C° 0,5 mm 1 m/S 736 mmHg 94%
    22:00 +20°C° 0,5 mm 1 m/S 736 mmHg 96%
    23:00 +20°C° 0,5 mm 1 m/S 736 mmHg 98%

    20 Juli, Freitag

    Zeit Temperatur Niederschläge Wind Luftdruck Luftfeuchtigkeit
    00:00 +19°C° 0,1 mm 1 m/S 736 mmHg 98%
    01:00 +19°C° 0,1 mm 1 m/S 736 mmHg 98%
    02:00 +19°C° 0,1 mm 1 m/S 736 mmHg 98%
    03:00 +19°C° 0 mm 1 m/S 736 mmHg 98%
    04:00 +19°C° 0 mm 1 m/S 736 mmHg 98%
    05:00 +19°C° 0 mm 1 m/S 736 mmHg 98%
    06:00 +20°C° 0 mm 1 m/S 736 mmHg 93%
    07:00 +22°C° 0 mm 1 m/S 736 mmHg 88%
    08:00 +23°C° 0 mm 1 m/S 736 mmHg 83%
    09:00 +25°C° 0,4 mm 1 m/S 736 mmHg 78%
    10:00 +26°C° 0,4 mm 1 m/S 736 mmHg 73%
    11:00 +27°C° 0,4 mm 1 m/S 736 mmHg 68%
    12:00 +27°C° 1,7 mm 1 m/S 736 mmHg 71%
    13:00 +27°C° 1,7 mm 1 m/S 736 mmHg 74%
    14:00 +27°C° 1,7 mm 2 m/S 736 mmHg 76%
    15:00 +27°C° 0,6 mm 2 m/S 736 mmHg 76%
    16:00 +27°C° 0,6 mm 1 m/S 736 mmHg 77%
    17:00 +27°C° 0,6 mm 1 m/S 736 mmHg 77%
    18:00 +26°C° 0,3 mm 1 m/S 736 mmHg 81%
    19:00 +24°C° 0,3 mm 1 m/S 736 mmHg 86%
    20:00 +23°C° 0,3 mm 1 m/S 736 mmHg 90%
    21:00 +22°C° 1,5 mm 1 m/S 736 mmHg 92%
    22:00 +22°C° 1,5 mm 1 m/S 735 mmHg 94%
    23:00 +21°C° 1,5 mm 1 m/S 735 mmHg 96%

    21 Juli, Samstag

    Zeit Temperatur Niederschläge Wind Luftdruck Luftfeuchtigkeit
    00:00 +21°C° 0,3 mm 1 m/S 735 mmHg 96%
    01:00 +20°C° 0,3 mm 1 m/S 735 mmHg 97%
    02:00 +20°C° 0,3 mm 1 m/S 735 mmHg 97%
    03:00 +20°C° 0 mm 1 m/S 736 mmHg 97%
    04:00 +20°C° 0 mm 1 m/S 736 mmHg 97%
    05:00 +20°C° 0 mm 1 m/S 736 mmHg 97%
    06:00 +22°C° 0 mm 1 m/S 736 mmHg 92%
    07:00 +23°C° 0 mm 1 m/S 736 mmHg 87%
    08:00 +25°C° 0 mm 1 m/S 736 mmHg 82%
    09:00 +26°C° 0,6 mm 1 m/S 736 mmHg 78%
    10:00 +27°C° 0,6 mm 1 m/S 736 mmHg 73%
    11:00 +29°C° 0,6 mm 1 m/S 736 mmHg 69%
    12:00 +29°C° 1 mm 1 m/S 736 mmHg 69%
    13:00 +29°C° 1 mm 1 m/S 736 mmHg 69%
    14:00 +29°C° 1 mm 1 m/S 736 mmHg 70%
    15:00 +28°C° 2,1 mm 1 m/S 736 mmHg 76%
    16:00 +27°C° 2,1 mm 1 m/S 736 mmHg 82%
    17:00 +26°C° 2,1 mm 1 m/S 736 mmHg 88%
    18:00 +25°C° 0,3 mm 1 m/S 736 mmHg 89%
    19:00 +24°C° 0,3 mm 1 m/S 736 mmHg 90%
    20:00 +23°C° 0,3 mm 1 m/S 736 mmHg 92%
    21:00 +23°C° 0,1 mm 1 m/S 736 mmHg 93%
    22:00 +22°C° 0,1 mm 1 m/S 736 mmHg 94%
    23:00 +21°C° 0,1 mm 1 m/S 736 mmHg 95%
    Mehr zeigen